Погода в Месягутове

Россия / Республика Башкортостан     56°05′16″N   55°20′52″E
темп.,
°C
ветер,
м/с
пор.,
м/с
влажн.,
%
обл.,
%
осадки,
мм/ч
давл.,
гПа
погр.,
м
15 мая, сб
сб1523:00+19ю356273 0.0 102262
02:00+18ю4106178 0.0 1021148
05:00+16ююз410620 0.0 1021167
08:00+19ююз4105940 0.0 1021260
11:00+24юз564169 0.0 1021534
14:00+28юз6734100 0.0 10211150
17:00+29зюз583735 0.0 10201447
20:00+24юз4855100 0.0 1020128
16 мая, вс
вс1623:00+20юз3860100 0.0 1020108
02:00+18ююз3556100 0.0 102059
05:00+16ююз355978 0.0 102165
08:00+20ююз38595 0.0 1021197
11:00+26ююз57415 0.0 1020632
14:00+29юз69315 0.0 10192594
17:00+29юз58360 0.0 10192846
20:00+24ююз47522 0.0 1018104
17 мая, пн
пн1723:00+20ююз35555 0.0 101859
02:00+18ююз365514 0.0 101887
05:00+17ююз335964 0.0 101827
08:00+19ююз2664100 0.3 1019169
11:00+23юз485598 0.3 1019527
14:00+28зюз710375 0.0 10191728
17:00+29з510405 0.0 10183254
20:00+24зюз3756100 0.0 1017113
18 мая, вт
вт1823:00+20зсз3364100 0.0 101827
02:00+18зсз236715 0.0 101826
05:00+16з117232 0.0 101911
08:00+20зсз126493 0.0 1019147
11:00+25зсз2351100 0.0 1019720
14:00+28сз344348 0.0 10181755
17:00+27з474127 0.0 10171628
20:00+19вюв36766 0.1 1018121
19 мая, ср
ср1923:00+16ю3781100 0.9 1019107
02:00+16всв468056 0.0 101986
05:00+15в48845 0.1 1020136
08:00+18в48695 0.0 1020251
11:00+23в56515 0.0 1020620
14:00+25в55435 0.0 10201101
17:00+26вюв44375 0.0 10191171
20:00+22всв34563 0.0 101857